TimeEST,TemperatureF,Dew PointF,Humidity,Sea Level PressureIn,VisibilityMPH,Wind Direction,Wind SpeedMPH,Gust SpeedMPH,PrecipitationIn,Events,Conditions,WindDirDegrees,DateUTC
12:54 AM,57.9,55.0,90,30.21,10.0,WSW,5.8,-,N/A,,Overcast,240,2012-12-05 05:54:00
1:54 AM,57.0,54.0,89,30.21,10.0,SW,4.6,-,N/A,,Clear,220,2012-12-05 06:54:00
2:54 AM,55.9,53.1,90,30.19,10.0,WSW,5.8,-,N/A,,Clear,240,2012-12-05 07:54:00
3:54 AM,55.9,53.1,90,30.18,10.0,WSW,6.9,-,N/A,,Clear,240,2012-12-05 08:54:00
4:54 AM,55.0,53.1,93,30.16,10.0,WSW,6.9,-,N/A,,Clear,250,2012-12-05 09:54:00
5:54 AM,57.0,54.0,89,30.17,10.0,SW,4.6,-,N/A,,Clear,230,2012-12-05 10:54:00
6:54 AM,53.1,51.1,93,30.18,9.0,SW,6.9,-,N/A,Fog,Shallow Fog,230,2012-12-05 11:54:00
7:54 AM,57.0,54.0,89,30.18,10.0,Variable,5.8,-,N/A,,Clear,0,2012-12-05 12:54:00
9:54 AM,64.9,55.9,73,30.19,10.0,West,9.2,-,N/A,,Mostly Cloudy,270,2012-12-05 14:54:00
10:54 AM,70.0,54.0,57,30.17,10.0,West,12.7,-,N/A,,Mostly Cloudy,260,2012-12-05 15:54:00
11:54 AM,72.0,51.1,48,30.14,10.0,West,13.8,21.9,N/A,,Mostly Cloudy,260,2012-12-05 16:54:00
12:54 PM,73.9,52.0,46,30.11,10.0,West,12.7,-,N/A,,Mostly Cloudy,280,2012-12-05 17:54:00
1:54 PM,73.0,52.0,48,30.09,10.0,West,13.8,-,N/A,,Mostly Cloudy,260,2012-12-05 18:54:00
2:54 PM,72.0,53.1,51,30.09,10.0,WNW,8.1,-,N/A,,Mostly Cloudy,290,2012-12-05 19:54:00
3:54 PM,70.0,54.0,57,30.10,10.0,NW,8.1,-,N/A,,Overcast,310,2012-12-05 20:54:00
4:54 PM,66.9,55.0,66,30.11,10.0,North,4.6,-,N/A,,Overcast,360,2012-12-05 21:54:00
5:54 PM,64.9,55.0,70,30.12,10.0,NNE,4.6,-,N/A,,Overcast,20,2012-12-05 22:54:00
6:52 PM,64.4,55.4,73,30.16,10.0,ENE,19.6,26.5,N/A,,Overcast,60,2012-12-05 23:52:00
6:54 PM,62.1,54.0,75,30.15,10.0,ENE,20.7,26.5,N/A,,Overcast,60,2012-12-05 23:54:00
7:54 PM,57.9,48.9,72,30.19,10.0,NE,11.5,-,N/A,,Overcast,40,2012-12-06 00:54:00
8:54 PM,57.0,45.0,64,30.19,10.0,NE,8.1,-,N/A,,Overcast,50,2012-12-06 01:54:00
9:51 PM,53.6,48.2,82,30.20,10.0,ENE,6.9,-,0.00,,Overcast,60,2012-12-06 02:51:00
9:54 PM,54.0,48.0,80,30.19,10.0,ENE,6.9,-,0.00,,Overcast,60,2012-12-06 02:54:00
10:54 PM,53.1,48.9,86,30.21,10.0,NE,6.9,-,0.00,,Overcast,50,2012-12-06 03:54:00
11:54 PM,52.0,45.0,77,30.20,10.0,ENE,3.5,-,0.01,Rain,Light Rain,60,2012-12-06 04:54:00